sat.trackr.live / text

‹ back to catalog

SXM-10

NORAD 64290 · 2025-122A

PAYLOAD ACTIVE UNKNOWN

§ Identity

Operator
Country
US
Launch date
2025-06-07
Launch site
AFETR
Launch vehicle
Mass (kg)
RCS (m²)

Purposes: comms

External: N2YO · Heavens-Above · Gunter

§ Orbital elements

Epoch: 2026-09-19T21:32:54.983904Z

Period
1,436.07 min
Inclination
0.0290°
Eccentricity
0.0001523
Mean motion
1.00274011 rev/d
Perigee alt
35,779.5 km
Apogee alt
35,792.4 km
Semi-major
42,164.1 km
B*
0.0000e+0
RAAN
38.4185°
Arg perigee
316.5989°
Mean anomaly
210.8711°
Rev number
463

§ Raw data

SXM-101 64290U 25122A   26262.89785861 -.00000022  00000+0  00000+0 0  99962 64290   0.0290  38.4185 0001523 316.5989 210.8711  1.00274011  4634

JSON: /api/v1/satellites/64290 · /tle

For live sub-satellite position, see the globe view (requires WebGL).

§ Visibility from observer

Set your observer location to see the next 7 days of passes ≥ 10°. The values pass through the URL so the page stays shareable.

No JS? Fill the form by hand. The geolocation button needs JavaScript.